This is the latest recevied weather packets stored in our database for station/object VK6DC-13. If no packets are shown the sender has not sent any weather packets the latest 10 day(s).
| Time | Temp. | Humidity | Pressure | Rain* | Wind** | Luminosity | Snow |
|---|---|---|---|---|---|---|---|
| 1787764216 | 11.11° C | 98% | 1020.4 hPa | 0.51 mm | - | 0 W/m² | - |
| 1787763634 | 11.11° C | 98% | 1020.5 hPa | 0.51 mm | - | 0 W/m² | - |
| 1787763031 | 11.11° C | 98% | 1020.5 hPa | 0.51 mm | - | 0 W/m² | - |
| 1787762429 | 11.11° C | 98% | 1020.4 hPa | 0.51 mm | - | 0 W/m² | - |
| 1787761825 | 11.11° C | 98% | 1020.3 hPa | 0.51 mm | - | 0 W/m² | - |
| 1787761223 | 11.11° C | 98% | 1020.1 hPa | 0.76 mm | - | 0 W/m² | - |
| 1787760620 | 11.11° C | 98% | 1020 hPa | 1.02 mm | - | 0 W/m² | - |
| 1787760017 | 11.11° C | 98% | 1020.2 hPa | 1.27 mm | - | 0 W/m² | - |
| 1787759435 | 11.11° C | 98% | 1020.1 hPa | 1.52 mm | - | 0 W/m² | - |
| 1787758832 | 11.11° C | 98% | 1019.9 hPa | 1.52 mm | - | 0 W/m² | - |
| 1787758229 | 11.11° C | 98% | 1019.9 hPa | 1.78 mm | - | 0 W/m² | - |
| 1787757626 | 11.11° C | 98% | 1020 hPa | 2.03 mm | - | 0 W/m² | - |
| 1787757024 | 11.11° C | 98% | 1020.1 hPa | 2.29 mm | - | 0 W/m² | - |
| 1787756420 | 11.11° C | 98% | 1020.2 hPa | 2.03 mm | - | 0 W/m² | - |
| 1787755818 | 11.11° C | 98% | 1020.3 hPa | 1.78 mm | - | 0 W/m² | - |
| 1787755235 | 11.11° C | 98% | 1020.3 hPa | 2.29 mm | - | 0 W/m² | - |
| 1787754633 | 11.11° C | 98% | 1020.4 hPa | 2.54 mm | - | 0 W/m² | - |
| 1787754030 | 11.11° C | 98% | 1020.4 hPa | 2.29 mm | - | 0 W/m² | - |
| 1787753427 | 11.67° C | 98% | 1020.4 hPa | 2.03 mm | - | 0 W/m² | - |
| 1787752824 | 11.67° C | 98% | 1020.3 hPa | 1.78 mm | - | 0 W/m² | - |
| 1787752221 | 11.67° C | 98% | 1020.4 hPa | 1.78 mm | - | 0 W/m² | - |
| 1787751619 | 11.67° C | 98% | 1020.4 hPa | 1.02 mm | - | 0 W/m² | - |
| 1787751016 | 11.11° C | 98% | 1020.2 hPa | 0.51 mm | - | 0 W/m² | - |
| 1787750434 | 11.11° C | 98% | 1020.1 hPa | 0.51 mm | - | 0 W/m² | - |
| 1787749831 | 11.11° C | 98% | 1020 hPa | 0.25 mm | - | 0 W/m² | - |
* Rain latest hour (hover to see other rain measurements)
** Current wind speed in m/s (hover to see current wind gust speed)